Location: Fredericton
(45.9636°N, 66.6431°W)
Time: 01:36:14
(UTC-04:00)

X-37B - Visible Passes

Search period start: 25 January 2022 00:00
Search period end: 04 February 2022 00:00
Orbit: 334 x 337 km, 45.0° (Epoch: 11 January)

Date Brightness Start Highest point End Pass type
(mag) Time Alt. Az. Time Alt. Az. Time Alt. Az.
26 Jan 2.9 19:24:06 10° SSW 19:24:58 15° SSW 19:24:58 15° SSW visible
27 Jan 2.9 18:10:58 10° SSE 18:11:41 11° SE 18:12:25 10° SE visible
27 Jan 3.2 19:43:57 10° SW 19:44:42 16° SW 19:44:42 16° SW visible
28 Jan 2.0 18:29:32 10° SSW 18:31:49 22° SSE 18:33:10 16° ESE visible
28 Jan 3.9 20:04:12 10° WSW 20:04:24 11° WSW 20:04:24 11° WSW visible
29 Jan 1.1 18:49:23 10° SW 18:52:05 40° SSE 18:52:49 32° ESE visible
30 Jan 0.4 19:09:38 10° WSW 19:12:26 64° S 19:12:26 64° S visible
31 Jan 1.6 19:30:01 10° W 19:32:02 41° WSW 19:32:02 41° WSW visible
01 Feb 0.5 18:15:04 10° WSW 18:17:53 63° S 18:20:24 12° E visible
01 Feb 3.0 19:50:28 10° W 19:51:37 22° W 19:51:37 22° W visible
02 Feb 0.3 18:35:27 10° W 18:38:18 75° S 18:40:01 21° E visible
02 Feb 3.9 20:10:56 10° W 20:11:15 12° W 20:11:15 12° W visible
03 Feb 0.5 18:55:53 10° W 18:58:42 65° S 18:59:40 35° ESE visible
